Weather History for Brownsville, TX

Change the Weather History Date:

Sunday, December 1, 2013

  Actual Average Record
Temperature  
Mean Temperature 71 °F 65 °F  
Max Temperature 81 °F 75 °F 88 °F (1942)
Min Temperature 60 °F 56 °F 34 °F (1911)
Degree Days  
Heating Degree Days 0 4  
Month to date heating degree days 0 4  
Since 1 July heating degree days 108 58  
Cooling Degree Days 6 4  
Month to date cooling degree days 6 4  
Year to date cooling degree days 4126 3949  
Growing Degree Days 20 (Base 50)    
Moisture  
Dew Point 61 °F    
Average Humidity 76    
Maximum Humidity 93    
Minimum Humidity 58    
Precipitation  
Precipitation 0.00 in 0.04 in 2.35 in (1915)
Month to date precipitation 0.00 0.04  
Year to date precipitation 25.49 26.33  
Sea Level Pressure  
Sea Level Pressure 30.09 in    
Wind  
Wind Speed 7 mph (SSE)    
Max Wind Speed 17 mph    
Max Gust Speed 22 mph    
Visibility 8 miles    
Events      
T = Trace of Precipitation, MM = Missing Value Source: NWS Daily Summary

Daily Weather History Graph

Daily Weather History Graph

Search for Another Location

Airport:

Trip Planner

Search our weather history database for the weather conditions in past years. The results will help you decide how hot, cold, wet, or windy it might be!

Date:

Astronomy

Dec. 01, 2013 Rise Set
Actual Time 6:59 AM CST 5:37 PM CST
Civil Twilight 6:34 AM CST 6:02 PM CST
Nautical Twilight 6:06 AM CST 6:31 PM CST
Astronomical Twilight 5:38 AM CST 6:59 PM CST
Moon 5:26 AM CST (12/1) 4:43 PM CST (12/1)
Length of Visible Light 11h 28m
Length of Day
10h 38m
Waning Crescent, 2% of the Moon is Illuminated
Dec 1
Waning Crescent
Dec 2
New
Dec 9
First Quarter
Dec 17
Full
Dec 25
Last Quarter

Hourly Weather History & Observations

Time (CST) Temp. Dew Point Humidity Pressure Visibility Wind Dir Wind Speed Gust Speed Precip Events Conditions
12:53 AM 64.9 °F 60.1 °F 84% 30.19 in 10.0 mi Calm Calm - N/A   Overcast
1:53 AM 64.9 °F 60.1 °F 84% 30.17 in 10.0 mi Calm Calm - N/A   Overcast
2:53 AM 63.0 °F 60.1 °F 90% 30.17 in 10.0 mi SSE 4.6 mph - N/A   Mostly Cloudy
3:53 AM 64.0 °F 61.0 °F 90% 30.17 in 10.0 mi Calm Calm - N/A   Overcast
4:53 AM 63.0 °F 61.0 °F 93% 30.15 in 10.0 mi Calm Calm - N/A   Overcast
5:53 AM 64.0 °F 61.0 °F 90% 30.16 in 10.0 mi Calm Calm - N/A   Overcast
6:53 AM 64.9 °F 61.0 °F 87% 30.16 in 10.0 mi Calm Calm - N/A   Overcast
7:53 AM 64.0 °F 61.0 °F 90% 30.17 in 10.0 mi Calm Calm - N/A   Mostly Cloudy
8:53 AM 70.0 °F 63.0 °F 78% 30.18 in 10.0 mi SE 3.5 mph - N/A   Mostly Cloudy
9:53 AM 75.0 °F 63.0 °F 66% 30.19 in 10.0 mi South 10.4 mph - N/A   Clear
10:53 AM 79.0 °F 63.0 °F 58% 30.17 in 10.0 mi SSE 16.1 mph - N/A   Mostly Cloudy
11:53 AM 79.0 °F 63.0 °F 58% 30.14 in 10.0 mi SSE 16.1 mph 21.9 mph N/A   Mostly Cloudy
12:53 PM 78.1 °F 63.0 °F 60% 30.11 in 10.0 mi SSE 15.0 mph - N/A   Mostly Cloudy
1:53 PM 78.1 °F 62.1 °F 58% 30.08 in 10.0 mi South 13.8 mph - N/A   Mostly Cloudy
2:53 PM 79.0 °F 62.1 °F 56% 30.06 in 10.0 mi South 17.3 mph 20.7 mph N/A   Partly Cloudy
3:53 PM 77.0 °F 63.0 °F 62% 30.04 in 10.0 mi South 13.8 mph - N/A   Scattered Clouds
4:53 PM 75.0 °F 63.0 °F 66% 30.04 in 10.0 mi SSE 13.8 mph - N/A   Clear
5:53 PM 69.1 °F 62.1 °F 78% 30.04 in 10.0 mi SSE 5.8 mph - N/A   Clear
6:53 PM 66.9 °F 62.1 °F 84% 30.05 in 10.0 mi SSE 4.6 mph - N/A   Clear
7:53 PM 64.9 °F 62.1 °F 90% 30.05 in 10.0 mi SSE 3.5 mph - N/A   Clear
8:53 PM 64.0 °F 62.1 °F 93% 30.05 in 10.0 mi SE 3.5 mph - N/A   Clear
9:53 PM 62.1 °F 60.1 °F 93% 30.04 in 10.0 mi SSE 4.6 mph - N/A   Clear
10:17 PM 60.8 °F 60.8 °F 100% 30.04 in 1.5 mi South 4.6 mph - N/A   Clear
10:29 PM 62.6 °F 60.8 °F 94% 30.04 in 3.0 mi SSE 3.5 mph - N/A   Clear
10:43 PM 62.6 °F 60.8 °F 94% 30.04 in 2.5 mi South 3.5 mph - N/A   Clear
10:53 PM 62.1 °F 61.0 °F 96% 30.03 in 1.8 mi South 3.5 mph - N/A   Clear
11:09 PM 62.6 °F 60.8 °F 94% 30.03 in 0.8 mi South 3.5 mph - N/A   Clear
11:33 PM 60.8 °F 60.8 °F 100% 30.01 in 1.5 mi South 4.6 mph - N/A   Clear
11:46 PM 60.8 °F 59.0 °F 94% 30.01 in 2.5 mi South 4.6 mph - N/A   Clear
11:53 PM 61.0 °F 59.0 °F 93% 30.00 in 1.8 mi South 5.8 mph - N/A   Clear